Voltar ao catálogo

STARLINK-2614

AtivoComunicaçõesVLEO
NORAD 48380·PAYLOAD·🇺🇸 United States

Lançado May 4, 2021 de Cape Canaveral Space Force Station

Loading…

Próximas Passagens (próximas 24 horas)

TLE

AtualizadoSource: CelesTrak SupGP

Época: Sep 14, 2026, 21:51 UTC

1 48380C 21038AD  26257.91090278 -.00015177  00000+0 -48806-3 0  2573
2 48380  53.1598 185.0350 0001402  96.1076 131.6631 15.31709700    19

Acompanhe STARLINK-2614 em tempo real com AllMySat

Download on the App Store